N98CK KPUJ-KBNL

Flight info

Callsign N98CK
Flight time 1h 2m
Altitude 9000
Route DCT AHN V417 IRQ DCT
Aircraft AEST/L-VGD/C

Departure

Time 2026-05-04 20:53
Airport Silver Comet Field at Paulding Northwest Atlanta Airport (KPUJ)

Arrival

Time 2026-05-04 21:56
Airport Barnwell Regional Airport (KBNL)
Time Latitude Longitude Altitude Speed Heading
2026-05-04 20:45 33.91481 -84.94114 1291 ft 0 kts 214°
2026-05-04 20:49 33.91485 -84.94148 1291 ft 8 kts 310°
2026-05-04 20:49 33.91493 -84.94224 1291 ft 12 kts 225°
2026-05-04 20:49 33.91484 -84.94294 1291 ft 9 kts 308°
2026-05-04 20:49 33.91526 -84.94358 1292 ft 10 kts 307°
2026-05-04 20:50 33.91570 -84.94428 1292 ft 11 kts 307°
2026-05-04 20:50 33.91618 -84.94504 1292 ft 12 kts 307°
2026-05-04 20:50 33.91668 -84.94582 1292 ft 12 kts 312°
2026-05-04 20:50 33.91723 -84.94660 1293 ft 12 kts 308°
2026-05-04 20:51 33.91715 -84.94720 1293 ft 0 kts 217°
2026-05-04 20:52 33.91693 -84.94741 1292 ft 11 kts 217°
2026-05-04 20:52 33.91620 -84.94720 1291 ft 14 kts 129°
2026-05-04 20:52 33.91456 -84.94462 1292 ft 76 kts 127°
2026-05-04 20:53 33.91040 -84.93799 1317 ft 111 kts 126°
2026-05-04 20:53 33.90739 -84.93286 1490 ft 115 kts 122°
2026-05-04 20:53 33.90651 -84.92379 1923 ft 119 kts 72°
2026-05-04 20:53 33.91044 -84.91369 2124 ft 143 kts 63°
2026-05-04 20:54 33.91419 -84.90214 2414 ft 156 kts 88°
2026-05-04 20:54 33.91412 -84.88905 2840 ft 156 kts 94°
2026-05-04 20:54 33.91407 -84.87603 3266 ft 155 kts 92°
2026-05-04 20:54 33.91431 -84.86290 3696 ft 158 kts 92°
2026-05-04 20:55 33.91462 -84.84982 4104 ft 155 kts 90°
2026-05-04 20:55 33.91499 -84.83677 4531 ft 157 kts 91°
2026-05-04 20:55 33.91536 -84.82357 4948 ft 157 kts 91°
2026-05-04 20:55 33.91571 -84.81043 5294 ft 157 kts 91°
2026-05-04 20:56 33.91606 -84.79722 5626 ft 158 kts 91°
2026-05-04 20:56 33.91641 -84.78399 5996 ft 159 kts 91°
2026-05-04 20:56 33.91678 -84.77069 6346 ft 159 kts 91°
2026-05-04 20:56 33.91716 -84.75741 6694 ft 159 kts 91°
2026-05-04 20:57 33.91753 -84.74420 7018 ft 157 kts 92°
2026-05-04 20:57 33.91787 -84.73106 7306 ft 155 kts 92°
2026-05-04 20:57 33.91822 -84.71808 7593 ft 154 kts 92°
2026-05-04 20:57 33.91857 -84.70524 7923 ft 153 kts 92°
2026-05-04 20:58 33.91892 -84.69243 8207 ft 152 kts 93°
2026-05-04 20:58 33.91924 -84.67971 8463 ft 152 kts 93°
2026-05-04 20:58 33.91957 -84.66722 8749 ft 151 kts 93°
2026-05-04 20:58 33.91991 -84.65462 9010 ft 151 kts 93°
2026-05-04 20:59 33.92022 -84.64152 9047 ft 164 kts 93°
2026-05-04 20:59 33.92054 -84.62710 8982 ft 180 kts 93°
2026-05-04 20:59 33.92096 -84.61166 8980 ft 189 kts 92°
2026-05-04 20:59 33.92136 -84.59555 8979 ft 195 kts 92°
2026-05-04 21:00 33.92177 -84.57897 8979 ft 201 kts 92°
2026-05-04 21:00 33.92220 -84.56198 8962 ft 207 kts 92°
2026-05-04 21:00 33.92267 -84.54453 8981 ft 210 kts 92°
2026-05-04 21:00 33.92314 -84.52681 8975 ft 214 kts 92°
2026-05-04 21:01 33.92359 -84.50875 8962 ft 216 kts 92°
2026-05-04 21:01 33.92402 -84.49060 8977 ft 218 kts 92°
2026-05-04 21:01 33.92449 -84.47227 8961 ft 219 kts 92°
2026-05-04 21:01 33.92495 -84.45390 8967 ft 219 kts 91°
2026-05-04 21:02 33.92538 -84.43546 8961 ft 220 kts 92°
2026-05-04 21:02 33.92582 -84.41726 8964 ft 220 kts 91°
2026-05-04 21:02 33.92631 -84.39861 8972 ft 220 kts 92°
2026-05-04 21:02 33.92675 -84.38042 8990 ft 220 kts 92°
2026-05-04 21:03 33.92717 -84.36168 8977 ft 221 kts 92°
2026-05-04 21:03 33.92761 -84.34335 8975 ft 222 kts 92°
2026-05-04 21:03 33.92804 -84.32472 8981 ft 223 kts 91°
2026-05-04 21:03 33.92849 -84.30610 8978 ft 222 kts 92°
2026-05-04 21:04 33.92892 -84.28754 8986 ft 222 kts 92°
2026-05-04 21:04 33.92933 -84.26899 8994 ft 222 kts 92°
2026-05-04 21:04 33.92975 -84.25047 8988 ft 221 kts 92°
2026-05-04 21:04 33.93021 -84.23190 8988 ft 222 kts 92°
2026-05-04 21:05 33.93065 -84.21334 8986 ft 222 kts 92°
2026-05-04 21:05 33.93105 -84.19474 8979 ft 222 kts 92°
2026-05-04 21:05 33.93145 -84.17619 8992 ft 222 kts 92°
2026-05-04 21:05 33.93187 -84.15763 8984 ft 222 kts 92°
2026-05-04 21:06 33.93227 -84.13905 8979 ft 222 kts 92°
2026-05-04 21:06 33.93269 -84.12051 8987 ft 221 kts 92°
2026-05-04 21:06 33.93311 -84.10201 8983 ft 221 kts 92°
2026-05-04 21:06 33.93352 -84.08355 8987 ft 221 kts 92°
2026-05-04 21:07 33.93390 -84.06509 8985 ft 221 kts 92°
2026-05-04 21:07 33.93428 -84.04665 8997 ft 219 kts 92°
2026-05-04 21:07 33.93469 -84.02849 8990 ft 221 kts 92°
2026-05-04 21:07 33.93508 -84.01004 8988 ft 219 kts 92°
2026-05-04 21:08 33.93545 -83.99176 8997 ft 219 kts 92°
2026-05-04 21:08 33.93581 -83.97337 8987 ft 220 kts 91°
2026-05-04 21:08 33.93622 -83.95493 8992 ft 220 kts 92°
2026-05-04 21:08 33.93659 -83.93651 8983 ft 221 kts 92°
2026-05-04 21:09 33.93696 -83.91799 8987 ft 220 kts 91°
2026-05-04 21:09 33.93736 -83.89949 8983 ft 221 kts 92°
2026-05-04 21:09 33.93771 -83.88106 8989 ft 220 kts 92°
2026-05-04 21:09 33.93807 -83.86263 8987 ft 220 kts 91°
2026-05-04 21:10 33.93845 -83.84420 8994 ft 220 kts 92°
2026-05-04 21:10 33.93879 -83.82572 8994 ft 221 kts 92°
2026-05-04 21:10 33.93918 -83.80717 9018 ft 222 kts 92°
2026-05-04 21:10 33.93952 -83.78858 9009 ft 222 kts 92°
2026-05-04 21:11 33.93986 -83.76993 9006 ft 223 kts 91°
2026-05-04 21:11 33.94023 -83.75126 9000 ft 223 kts 91°
2026-05-04 21:11 33.94058 -83.73263 9016 ft 222 kts 92°
2026-05-04 21:11 33.94092 -83.71401 9007 ft 222 kts 91°
2026-05-04 21:12 33.94127 -83.69545 9015 ft 221 kts 91°
2026-05-04 21:12 33.94162 -83.67716 9010 ft 222 kts 92°
2026-05-04 21:12 33.94197 -83.65857 9017 ft 221 kts 91°
2026-05-04 21:12 33.94231 -83.64003 9014 ft 222 kts 92°
2026-05-04 21:13 33.94261 -83.62152 9009 ft 221 kts 91°
2026-05-04 21:13 33.94297 -83.60299 9015 ft 221 kts 91°
2026-05-04 21:13 33.94327 -83.58448 9012 ft 222 kts 92°
2026-05-04 21:13 33.94360 -83.56589 9014 ft 221 kts 91°
2026-05-04 21:14 33.94393 -83.54737 9009 ft 221 kts 92°
2026-05-04 21:14 33.94425 -83.52891 9013 ft 221 kts 92°
2026-05-04 21:14 33.94456 -83.51041 9012 ft 221 kts 92°
2026-05-04 21:14 33.94486 -83.49189 8989 ft 222 kts 91°
2026-05-04 21:15 33.94521 -83.47331 9002 ft 221 kts 91°
2026-05-04 21:15 33.94551 -83.45495 8987 ft 222 kts 91°
2026-05-04 21:15 33.94579 -83.43641 9005 ft 222 kts 91°
2026-05-04 21:15 33.94612 -83.41756 8992 ft 223 kts 91°
2026-05-04 21:16 33.94645 -83.39891 9001 ft 223 kts 92°
2026-05-04 21:16 33.94668 -83.38044 8987 ft 222 kts 92°
2026-05-04 21:16 33.94699 -83.36179 8995 ft 222 kts 91°
2026-05-04 21:16 33.94728 -83.34315 8988 ft 223 kts 92°
2026-05-04 21:17 33.94719 -83.32450 8995 ft 222 kts 99°
2026-05-04 21:17 33.94388 -83.30643 8999 ft 220 kts 107°
2026-05-04 21:17 33.94027 -83.28856 8998 ft 220 kts 107°
2026-05-04 21:17 33.93667 -83.27057 8991 ft 221 kts 107°
2026-05-04 21:18 33.93304 -83.25265 8996 ft 220 kts 107°
2026-05-04 21:18 33.92940 -83.23479 8995 ft 220 kts 107°
2026-05-04 21:18 33.92581 -83.21691 8990 ft 220 kts 107°
2026-05-04 21:18 33.92219 -83.19902 8997 ft 220 kts 107°
2026-05-04 21:19 33.91856 -83.18107 8991 ft 220 kts 107°
2026-05-04 21:19 33.91492 -83.16322 8999 ft 220 kts 107°
2026-05-04 21:19 33.91128 -83.14534 8992 ft 220 kts 107°
2026-05-04 21:19 33.90775 -83.12766 8993 ft 219 kts 107°
2026-05-04 21:20 33.90408 -83.10985 8996 ft 219 kts 107°
2026-05-04 21:20 33.90044 -83.09201 8995 ft 219 kts 106°
2026-05-04 21:20 33.89679 -83.07419 8999 ft 219 kts 106°
2026-05-04 21:20 33.89318 -83.05637 8995 ft 219 kts 106°
2026-05-04 21:21 33.88959 -83.03856 8998 ft 219 kts 107°
2026-05-04 21:21 33.88593 -83.02073 8999 ft 219 kts 107°
2026-05-04 21:21 33.88233 -83.00297 9004 ft 219 kts 107°
2026-05-04 21:21 33.87864 -82.98515 9006 ft 219 kts 106°
2026-05-04 21:22 33.87502 -82.96734 9002 ft 219 kts 106°
2026-05-04 21:22 33.87143 -82.94956 9001 ft 218 kts 105°
2026-05-04 21:22 33.86779 -82.93179 8999 ft 219 kts 107°
2026-05-04 21:22 33.86407 -82.91408 8999 ft 219 kts 106°
2026-05-04 21:23 33.86046 -82.89635 9003 ft 218 kts 107°
2026-05-04 21:23 33.85686 -82.87862 9002 ft 218 kts 107°
2026-05-04 21:23 33.85327 -82.86115 8999 ft 218 kts 106°
2026-05-04 21:23 33.84957 -82.84319 9005 ft 218 kts 106°
2026-05-04 21:24 33.84593 -82.82546 9002 ft 219 kts 107°
2026-05-04 21:24 33.84230 -82.80796 8999 ft 219 kts 107°
2026-05-04 21:24 33.83865 -82.79017 9004 ft 219 kts 107°
2026-05-04 21:24 33.83491 -82.77240 9005 ft 219 kts 107°
2026-05-04 21:25 33.83130 -82.75462 9003 ft 219 kts 105°
2026-05-04 21:25 33.82763 -82.73680 9002 ft 219 kts 106°
2026-05-04 21:25 33.82396 -82.71901 9004 ft 219 kts 106°
2026-05-04 21:25 33.82029 -82.70115 9001 ft 219 kts 107°
2026-05-04 21:26 33.81657 -82.68337 9005 ft 219 kts 107°
2026-05-04 21:26 33.81288 -82.66562 9000 ft 219 kts 107°
2026-05-04 21:26 33.80921 -82.64786 9001 ft 219 kts 107°
2026-05-04 21:26 33.80550 -82.63011 9003 ft 219 kts 107°
2026-05-04 21:27 33.80185 -82.61235 9003 ft 219 kts 107°
2026-05-04 21:27 33.79811 -82.59461 9008 ft 219 kts 107°
2026-05-04 21:27 33.79453 -82.57699 9001 ft 220 kts 107°
2026-05-04 21:27 33.79081 -82.55920 9006 ft 219 kts 107°
2026-05-04 21:28 33.78706 -82.54138 8994 ft 220 kts 107°
2026-05-04 21:28 33.78334 -82.52355 9004 ft 219 kts 107°
2026-05-04 21:28 33.77959 -82.50577 9018 ft 219 kts 106°
2026-05-04 21:28 33.77587 -82.48796 9023 ft 220 kts 106°
2026-05-04 21:29 33.77213 -82.47010 9021 ft 221 kts 106°
2026-05-04 21:29 33.76840 -82.45221 9020 ft 220 kts 105°
2026-05-04 21:29 33.76469 -82.43434 9021 ft 220 kts 106°
2026-05-04 21:29 33.76096 -82.41650 9027 ft 220 kts 106°
2026-05-04 21:30 33.75722 -82.39861 9011 ft 220 kts 107°
2026-05-04 21:30 33.75345 -82.38069 9019 ft 221 kts 107°
2026-05-04 21:30 33.74965 -82.36287 9012 ft 221 kts 107°
2026-05-04 21:30 33.74592 -82.34495 9016 ft 221 kts 106°
2026-05-04 21:31 33.73843 -82.30916 9021 ft 220 kts 107°
2026-05-04 21:31 33.73465 -82.29127 9011 ft 221 kts 107°
2026-05-04 21:31 33.73090 -82.27343 9014 ft 220 kts 106°
2026-05-04 21:32 33.72718 -82.25561 9016 ft 220 kts 107°
2026-05-04 21:32 33.72333 -82.23779 9012 ft 220 kts 107°
2026-05-04 21:32 33.71960 -82.21997 9007 ft 220 kts 106°
2026-05-04 21:32 33.71584 -82.20217 9010 ft 220 kts 107°
2026-05-04 21:33 33.71199 -82.18434 9007 ft 221 kts 107°
2026-05-04 21:33 33.70801 -82.16653 9008 ft 220 kts 111°
2026-05-04 21:33 33.70067 -82.15056 9005 ft 218 kts 127°
2026-05-04 21:33 33.69211 -82.13557 9011 ft 217 kts 127°
2026-05-04 21:34 33.68365 -82.12081 9013 ft 217 kts 127°
2026-05-04 21:34 33.67504 -82.10593 9012 ft 217 kts 127°
2026-05-04 21:34 33.66640 -82.09098 9005 ft 218 kts 127°
2026-05-04 21:34 33.65782 -82.07598 9010 ft 218 kts 127°
2026-05-04 21:35 33.64917 -82.06103 9008 ft 218 kts 127°
2026-05-04 21:35 33.64051 -82.04606 9013 ft 218 kts 127°
2026-05-04 21:35 33.63187 -82.03112 9011 ft 218 kts 127°
2026-05-04 21:35 33.62325 -82.01613 9012 ft 218 kts 127°
2026-05-04 21:36 33.61461 -82.00115 9006 ft 218 kts 127°
2026-05-04 21:36 33.60593 -81.98623 9007 ft 218 kts 127°
2026-05-04 21:36 33.59730 -81.97128 9014 ft 219 kts 127°
2026-05-04 21:36 33.58869 -81.95626 9009 ft 218 kts 127°
2026-05-04 21:37 33.58003 -81.94134 9013 ft 218 kts 128°
2026-05-04 21:37 33.57426 -81.93148 9011 ft 218 kts 127°
2026-05-04 21:37 33.56561 -81.91647 9008 ft 219 kts 126°
2026-05-04 21:37 33.55695 -81.90146 9008 ft 218 kts 127°
2026-05-04 21:38 33.54551 -81.88165 9004 ft 218 kts 127°
2026-05-04 21:38 33.53965 -81.87160 9011 ft 218 kts 127°
2026-05-04 21:38 33.53094 -81.85667 9003 ft 219 kts 126°
2026-05-04 21:38 33.52240 -81.84187 9009 ft 218 kts 126°
2026-05-04 21:39 33.51374 -81.82691 9013 ft 219 kts 126°
2026-05-04 21:39 33.50505 -81.81187 9012 ft 219 kts 126°
2026-05-04 21:39 33.49635 -81.79689 9015 ft 219 kts 126°
2026-05-04 21:39 33.48761 -81.78197 9009 ft 218 kts 126°
2026-05-04 21:40 33.47897 -81.76704 9014 ft 218 kts 126°
2026-05-04 21:40 33.47032 -81.75212 9014 ft 219 kts 127°
2026-05-04 21:40 33.46156 -81.73721 9009 ft 219 kts 127°
2026-05-04 21:40 33.45289 -81.72230 9008 ft 218 kts 126°
2026-05-04 21:41 33.44430 -81.70740 9015 ft 217 kts 126°
2026-05-04 21:41 33.43563 -81.69256 9011 ft 217 kts 127°
2026-05-04 21:41 33.42707 -81.67795 9018 ft 218 kts 127°
2026-05-04 21:41 33.41845 -81.66306 9014 ft 217 kts 126°
2026-05-04 21:42 33.40978 -81.64820 9010 ft 217 kts 127°
2026-05-04 21:42 33.40115 -81.63335 9015 ft 218 kts 126°
2026-05-04 21:42 33.39246 -81.61847 9011 ft 218 kts 126°
2026-05-04 21:42 33.38374 -81.60367 9007 ft 218 kts 127°
2026-05-04 21:43 33.37511 -81.58894 9005 ft 211 kts 126°
2026-05-04 21:43 33.36663 -81.57437 8576 ft 219 kts 126°
2026-05-04 21:43 33.35782 -81.55928 8093 ft 224 kts 126°
2026-05-04 21:43 33.34880 -81.54391 7633 ft 226 kts 126°
2026-05-04 21:44 33.33983 -81.52843 7211 ft 226 kts 126°
2026-05-04 21:44 33.33079 -81.51296 6814 ft 226 kts 127°
2026-05-04 21:44 33.32173 -81.49752 6354 ft 228 kts 126°
2026-05-04 21:44 33.31264 -81.48190 5861 ft 229 kts 127°
2026-05-04 21:45 33.30362 -81.46648 5507 ft 223 kts 127°
2026-05-04 21:45 33.29480 -81.45145 5156 ft 219 kts 127°
2026-05-04 21:45 33.28607 -81.43670 4763 ft 216 kts 125°
2026-05-04 21:45 33.28121 -81.42020 4480 ft 212 kts 97°
2026-05-04 21:46 33.28369 -81.40363 4515 ft 198 kts 68°
2026-05-04 21:46 33.29270 -81.39085 4545 ft 208 kts 36°
2026-05-04 21:46 33.30633 -81.38452 4543 ft 216 kts
2026-05-04 21:46 33.32156 -81.38561 4527 ft 223 kts 349°
2026-05-04 21:47 33.33701 -81.38841 4537 ft 226 kts 355°
2026-05-04 21:47 33.35278 -81.38787 4539 ft 229 kts
2026-05-04 21:47 33.36865 -81.38520 4518 ft 231 kts
2026-05-04 21:47 33.38457 -81.38256 4536 ft 231 kts
2026-05-04 21:48 33.40064 -81.38028 4529 ft 232 kts
2026-05-04 21:48 33.41668 -81.37810 4539 ft 232 kts
2026-05-04 21:48 33.43259 -81.37776 4538 ft 230 kts 349°
2026-05-04 21:48 33.44656 -81.38499 4521 ft 211 kts 320°
2026-05-04 21:49 33.45524 -81.39780 4523 ft 190 kts 292°
2026-05-04 21:49 33.45838 -81.41229 4532 ft 174 kts 269°
2026-05-04 21:49 33.45707 -81.42608 4541 ft 161 kts 249°
2026-05-04 21:49 33.45331 -81.43825 4520 ft 153 kts 246°
2026-05-04 21:50 33.44803 -81.44913 4553 ft 151 kts 223°
2026-05-04 21:50 33.43924 -81.45577 4536 ft 151 kts 196°
2026-05-04 21:50 33.42892 -81.45659 4524 ft 150 kts 167°
2026-05-04 21:50 33.41929 -81.45211 4537 ft 147 kts 158°
2026-05-04 21:51 33.40983 -81.44744 4531 ft 147 kts 162°
2026-05-04 21:51 33.39995 -81.44329 4325 ft 154 kts 163°
2026-05-04 21:51 33.38963 -81.43922 3992 ft 156 kts 163°
2026-05-04 21:51 33.37935 -81.43505 3621 ft 158 kts 165°
2026-05-04 21:52 33.36897 -81.43103 3242 ft 156 kts 164°
2026-05-04 21:52 33.35866 -81.42691 2863 ft 158 kts 163°
2026-05-04 21:52 33.34829 -81.42267 2464 ft 153 kts 162°
2026-05-04 21:52 33.33865 -81.41851 1956 ft 145 kts 163°
2026-05-04 21:53 33.32957 -81.41473 1659 ft 126 kts 163°
2026-05-04 21:53 33.32232 -81.41153 1473 ft 100 kts 164°
2026-05-04 21:53 33.31605 -81.40902 1349 ft 92 kts 162°
2026-05-04 21:53 33.30973 -81.40631 1239 ft 103 kts 162°
2026-05-04 21:54 33.30280 -81.40330 1069 ft 109 kts 164°
2026-05-04 21:54 33.29547 -81.40033 931 ft 114 kts 162°
2026-05-04 21:54 33.28799 -81.39718 821 ft 112 kts 160°
2026-05-04 21:54 33.28101 -81.39414 681 ft 103 kts 161°
2026-05-04 21:55 33.27435 -81.39129 492 ft 100 kts 160°
2026-05-04 21:55 33.26798 -81.38857 345 ft 98 kts 159°
2026-05-04 21:55 33.26179 -81.38599 249 ft 85 kts 160°
2026-05-04 21:55 33.25709 -81.38397 246 ft 63 kts 163°
2026-05-04 21:56 33.25317 -81.38232 246 ft 55 kts 160°
2026-05-04 21:56 33.25183 -81.38144 248 ft 15 kts
2026-05-04 21:56 33.25284 -81.38074 248 ft 18 kts 33°
2026-05-04 21:56 33.25397 -81.37991 248 ft 19 kts 15°
2026-05-04 21:57 33.25524 -81.38023 247 ft 19 kts 344°
2026-05-04 21:57 33.25656 -81.38068 246 ft 20 kts 344°
2026-05-04 21:57 33.25775 -81.38095 245 ft 15 kts 15°
2026-05-04 21:57 33.25810 -81.38100 245 ft 0 kts 294°
2026-05-04 22:11 33.25810 -81.38099 245 ft 0 kts 294°
2026-05-04 22:16 33.25810 -81.38098 245 ft 0 kts 294°
2026-05-04 22:22 33.25810 -81.38097 245 ft 0 kts 294°
2026-05-04 22:27 33.25810 -81.38096 245 ft 0 kts 294°
2026-05-04 22:32 33.25810 -81.38095 245 ft 0 kts 294°
2026-05-04 22:36 33.25810 -81.38094 245 ft 0 kts 294°
2026-05-04 22:41 33.25810 -81.38093 245 ft 0 kts 294°
2026-05-04 22:46 33.25810 -81.38092 245 ft 0 kts 294°
2026-05-04 22:51 33.25810 -81.38091 245 ft 0 kts 294°